Location: Gleizolles
(44.4833°N, 6.7667°E)
Time: 15:27:31
(UTC+00:00)

Tiros 1 - Pass Details

Date: 25 June 2024
Orbit: 624 x 656 km, 48.4° (Epoch: 13 July)

Event Time Altitude Azimuth Distance (km) Brightness Sun altitude
Rises 03:16:48 0° 292° (WNW) 2,915 10.2 -5.4°
Reaches altitude 10° 03:19:07 10° 292° (WNW) 2,010 9.4 -5.1°
Maximum altitude 03:23:45 89° 202° (SSW) 639 7.2 -4.5°
Drops below altitude 10° 03:28:26 10° 114° (ESE) 2,024 10.1 -3.9°
Sets 03:30:46 0° 115° (ESE) 2,936 10.9 -3.5°
